Wind_Speed
14 14 15 16 16 16 16 17 19 21 22 22 22 20 19 19 22 25 27 29 31 33 36 38 39 41 42 43 43 41 39 38 36 35 34 32 31 29 27 27 26 27 28 30
11 11 12 13 14 14 15 16 18 20 21 22 22 22 21 21 23 26 29 31 34 36 39 41 42 42 43 43 43 42 40 40 38 36 35 33 31 30 28 25 25 25 25 27
8 9 10 11 11 12 13 14 15 17 18 20 21 22 23 25 27 29 31 34 36 39 41 43 44 42 41 41 41 41 41 41 40 39 37 35 33 31 28 27 26 25 25 27
6 7 8 8 9 10 9 10 11 14 16 17 19 20 20 23 27 30 32 33 34 36 37 38 36 36 37 38 40 41 41 41 41 40 38 37 35 33 32 29 28 28 28 28
3 4 5 6 7 6 6 7 9 10 12 13 14 16 17 20 23 25 27 28 29 29 30 30 30 30 33 35 37 39 41 42 43 42 41 39 38 37 36 34 33 32 32 32
2 0 2 3 4 5 6 7 8 9 10 11 13 15 16 18 20 22 24 26 27 28 29 30 31 32 33 35 38 40 42 43 44 44 43 43 42 41 40 39 38 38 37 36
3 1 1 3 5 6 8 9 10 10 10 11 13 15 17 19 21 23 26 28 29 30 31 33 34 35 37 39 41 43 44 45 45 46 46 46 46 46 45 45 44 44 43 43
2 1 3 5 7 9 10 11 13 14 14 15 16 16 18 20 23 25 28 30 32 34 36 37 38 39 40 41 43 44 45 46 47 47 48 49 49 50 50 50 50 50 49 49
4 3 5 7 8 10 11 12 14 16 16 18 18 18 20 23 26 28 31 33 36 38 39 40 41 42 43 44 45 46 47 47 48 49 50 51 51 52 52 53 54 55 55 55
6 6 7 9 10 11 13 14 15 17 18 20 20 21 23 26 29 32 35 37 38 40 42 44 45 46 47 48 49 50 50 49 49 48 47 47 48 48 49 50 51 53 56 58
8 9 10 11 11 12 13 15 16 18 19 21 23 25 27 30 33 35 37 39 42 44 46 47 49 51 52 54 54 53 52 50 48 46 45 45 46 47 47 47 48 50 52 55
10 11 12 12 12 13 14 16 17 18 20 23 26 28 30 33 35 37 39 42 45 47 49 51 53 54 55 55 54 52 51 50 50 50 50 50 50 50 49 49 49 49 49 51
10 11 12 13 13 14 15 16 18 19 22 25 27 29 32 34 36 39 42 44 47 49 51 53 54 55 54 53 51 50 50 52 53 54 55 55 55 54 53 51 50 50 49 49
11 11 12 12 13 14 15 17 19 22 24 27 28 30 32 34 37 40 43 45 47 49 51 53 53 52 50 49 49 50 52 55 56 57 58 58 58 57 56 54 53 51 50 49
12 13 13 13 14 15 17 20 22 24 26 28 29 31 33 36 39 42 45 46 48 50 51 51 50 48 47 48 50 52 55 56 58 59 60 60 60 59 57 55 53 51 50 49
14 15 15 15 16 17 20 22 24 26 28 29 31 33 35 38 42 45 47 49 50 51 51 50 48 47 48 50 52 55 56 58 60 61 61 60 58 57 55 54 51 50 49 49
14 15 16 17 18 19 21 24 26 27 29 31 33 36 37 39 43 46 48 50 51 51 51 49 47 48 50 52 55 57 58 60 61 59 58 57 57 55 54 52 50 48 46 46
13 14 16 18 20 21 24 26 27 28 30 32 35 38 40 42 44 48 50 51 51 51 50 48 47 48 51 54 56 57 58 59 59 58 58 56 55 52 49 47 46 44 43 43
14 16 18 20 22 23 25 27 29 31 31 34 37 40 42 44 44 46 49 49 50 51 49 48 48 50 52 55 56 56 56 57 57 57 55 53 51 47 44 42 39 38 38 39
15 18 20 22 24 26 26 28 30 32 33 36 39 42 44 47 47 47 49 49 51 51 49 47 48 50 53 55 56 55 55 55 55 55 52 49 45 41 39 35 33 31 32 33
18 20 21 23 24 25 26 28 31 33 35 38 40 43 46 48 50 51 52 52 53 52 48 46 48 51 54 55 55 54 54 54 53 51 49 45 41 38 34 30 27 26 27 29
20 21 22 23 24 25 27 28 30 32 34 37 40 43 45 48 50 51 52 52 53 51 47 46 47 51 53 54 53 52 52 51 50 49 47 43 38 34 30 25 21 20 21 23
20 21 22 23 24 26 27 29 30 32 35 38 40 43 46 49 50 51 52 51 52 51 47 45 47 50 52 53 53 51 50 49 48 46 44 40 36 32 28 22 17 14 14 17
20 21 21 22 23 25 27 28 31 33 36 38 41 44 47 49 51 52 52 51 51 51 46 44 46 49 51 52 52 50 49 48 46 44 42 38 35 31 27 21 15 9 7 11
20 19 20 21 24 26 27 29 32 34 36 38 41 44 47 49 51 52 52 51 51 50 46 44 45 47 49 51 51 49 47 46 45 43 41 37 34 30 26 21 15 9 3 5
20 20 21 23 25 27 29 31 32 34 36 38 41 44 47 49 50 51 52 51 50 49 46 44 44 46 48 49 49 48 46 45 43 41 39 37 34 30 26 22 17 12 6 2
Wind_Direction
265 267 269 271 267 260 256 256 254 254 255 258 261 263 263 260 261 265 269 273 276 278 281 284 287 290 291 294 297 297 299 301 302 305 307 310 313 309 299 288 277 263 255 253
268 270 270 271 266 261 260 263 264 264 266 267 266 266 266 267 269 271 274 276 278 279 282 285 287 288 289 292 294 295 297 299 300 303 305 309 311 307 303 291 281 272 265 260
287 279 267 263 264 268 272 276 279 281 280 279 278 275 273 271 273 275 277 280 281 283 286 286 286 286 287 288 290 291 292 295 297 299 301 304 305 304 299 292 283 278 275 268
280 266 259 259 267 278 282 285 287 289 291 289 289 288 284 281 279 280 283 286 288 290 290 291 288 285 285 286 287 288 290 292 294 296 297 298 297 296 294 290 283 279 274 271
276 255 250 259 271 286 298 296 303 307 306 301 300 298 292 287 287 288 290 293 296 296 296 296 294 292 291 291 291 291 292 292 292 293 293 293 291 289 287 284 280 276 272 270
30 212 240 268 294 309 319 318 322 322 319 311 307 301 296 292 294 296 298 299 300 301 303 302 301 300 299 297 296 295 294 294 293 292 291 289 287 284 281 277 274 271 268 266
60 45 303 298 307 318 320 319 318 312 309 309 308 303 300 300 301 302 303 304 304 304 303 303 303 301 299 298 296 295 294 293 291 289 287 285 282 279 276 273 269 266 263 261
62 11 310 307 308 313 316 318 318 314 310 309 308 307 305 306 308 307 306 306 306 306 306 305 302 301 299 297 295 294 292 290 288 286 284 282 280 277 274 270 267 263 260 258
25 354 335 325 325 325 325 326 325 321 318 314 311 309 308 309 309 310 311 311 311 311 309 308 306 304 302 301 299 297 295 293 291 289 286 284 281 279 275 272 267 263 259 256
10 356 343 337 334 337 333 330 327 326 323 320 317 316 317 316 316 316 316 316 315 314 313 312 310 309 308 307 306 304 302 300 298 296 293 290 287 283 279 275 271 267 261 257
360 354 348 344 342 339 334 329 327 325 325 324 323 323 322 320 321 320 320 319 318 318 317 317 316 315 314 313 312 310 309 308 306 303 300 297 293 289 284 281 276 271 266 261
355 352 349 346 343 339 335 331 328 327 328 328 327 326 325 323 323 322 322 322 322 322 321 319 318 317 316 315 314 312 311 310 308 306 303 300 297 292 288 283 279 274 270 265
347 346 344 344 343 339 335 333 333 334 334 333 330 328 327 325 325 325 325 325 324 323 321 320 319 318 316 315 313 312 311 310 308 306 303 300 297 293 289 284 280 275 271 266
338 339 339 340 339 336 334 336 338 339 338 335 332 330 329 329 328 328 326 326 325 324 322 320 319 318 317 316 314 313 311 309 307 305 303 301 297 293 289 285 280 275 270 265
333 334 334 334 337 337 339 340 341 341 338 334 334 334 334 332 331 329 328 328 327 326 324 323 321 320 319 318 316 314 312 310 308 306 304 302 298 294 290 286 281 275 269 264
330 328 329 332 336 338 339 339 341 341 338 337 337 338 337 336 334 332 332 331 330 329 328 326 324 323 321 320 318 316 314 312 310 309 306 304 301 296 291 286 281 275 267 261
322 321 325 330 334 335 336 338 340 341 340 340 341 340 340 339 337 335 334 333 333 332 331 329 327 325 324 322 321 319 317 315 314 312 309 306 302 298 293 288 281 274 266 260
319 317 322 327 332 336 336 337 339 342 342 342 341 341 342 342 341 337 336 335 335 335 333 332 330 328 327 325 324 323 321 320 318 315 313 310 306 301 295 290 282 273 264 256
318 319 322 327 333 335 335 336 338 341 343 342 343 344 344 343 343 339 337 337 337 337 336 335 334 332 330 329 328 327 325 325 323 321 318 314 310 304 299 293 283 272 263 255
317 318 321 327 332 333 334 335 337 339 341 342 344 345 345 344 343 343 341 341 341 339 338 337 336 334 333 333 333 331 330 329 328 327 325 321 316 311 306 297 285 272 262 254
318 319 321 325 328 330 331 333 336 338 341 342 344 345 345 345 345 345 345 344 343 341 339 338 337 336 336 337 337 335 334 334 334 334 333 330 326 321 315 305 291 276 264 253
318 318 319 323 327 329 330 332 334 336 339 341 343 344 345 346 347 346 346 345 344 343 340 338 339 339 340 340 340 340 340 340 340 340 340 338 336 332 326 315 299 282 265 250
313 314 318 323 325 327 329 330 332 334 337 339 342 344 346 347 348 348 347 347 345 344 342 340 341 341 343 344 344 345 346 346 346 346 347 347 346 343 340 333 318 293 264 243
309 312 317 320 322 324 327 329 331 334 336 338 341 344 347 349 349 349 348 347 347 346 344 343 343 344 346 347 349 349 350 351 352 353 354 354 354 354 353 352 346 327 276 233
308 313 316 318 321 325 328 330 332 333 335 338 341 344 347 349 350 349 349 348 348 348 347 345 345 347 349 351 352 354 354 355 356 357 359 360 360 1 2 5 6 4 344 213
307 312 316 319 323 326 329 330 332 333 335 337 341 343 346 348 350 350 350 349 349 349 348 347 347 349 351 354 355 357 358 359 360 1 3 4 6 7 9 11 14 14 12 215
Height
5858 5860 5859 5859 5859 5859 5858 5858 5858 5858 5858 5858 5858 5858 5859 5858 5858 5858 5857 5856 5854 5853 5851 5848 5846 5842 5839 5836 5833 5830 5827 5824 5822 5819 5815 5810 5806 5803 5801 5799 5797 5797 5797 5799
5857 5857 5857 5857 5857 5857 5856 5856 5855 5855 5855 5855 5854 5855 5855 5855 5854 5853 5852 5851 5849 5846 5844 5841 5838 5834 5831 5829 5826 5823 5820 5817 5814 5812 5808 5805 5802 5799 5797 5795 5794 5792 5792 5793
5855 5856 5855 5855 5855 5855 5855 5854 5854 5853 5852 5851 5851 5851 5851 5850 5849 5848 5846 5844 5842 5839 5836 5832 5829 5826 5823 5821 5818 5815 5812 5809 5806 5803 5801 5799 5796 5794 5792 5791 5789 5788 5788 5788
5853 5853 5853 5854 5854 5853 5853 5852 5852 5850 5849 5848 5848 5847 5846 5845 5843 5841 5839 5837 5834 5831 5827 5824 5820 5817 5815 5812 5810 5806 5803 5800 5798 5795 5793 5791 5789 5788 5786 5785 5784 5784 5782 5783
5852 5852 5852 5853 5853 5852 5852 5851 5850 5849 5847 5846 5844 5844 5843 5840 5838 5836 5833 5830 5827 5824 5820 5817 5813 5810 5807 5804 5801 5797 5794 5791 5788 5786 5783 5781 5780 5778 5778 5777 5776 5776 5776 5776
5851 5851 5851 5852 5851 5851 5851 5850 5849 5847 5846 5845 5843 5841 5839 5836 5834 5831 5828 5825 5822 5818 5814 5811 5807 5803 5799 5796 5792 5788 5785 5781 5777 5774 5771 5769 5768 5767 5766 5766 5766 5766 5765 5766
5852 5852 5851 5851 5851 5850 5850 5849 5848 5846 5844 5843 5841 5838 5836 5832 5830 5826 5823 5819 5815 5812 5808 5804 5800 5795 5791 5787 5782 5778 5773 5769 5765 5761 5758 5756 5754 5752 5752 5751 5752 5752 5752 5753
5852 5852 5851 5850 5850 5849 5847 5846 5845 5843 5841 5839 5837 5835 5832 5828 5825 5821 5817 5813 5809 5805 5800 5796 5791 5786 5781 5776 5771 5766 5761 5757 5752 5748 5744 5741 5738 5736 5735 5734 5734 5735 5736 5737
5852 5851 5850 5849 5848 5847 5845 5843 5842 5840 5837 5835 5833 5831 5828 5824 5820 5815 5811 5806 5801 5796 5791 5785 5780 5774 5769 5763 5758 5752 5747 5742 5737 5732 5728 5724 5721 5719 5717 5716 5715 5716 5717 5718
5851 5851 5849 5848 5846 5845 5843 5841 5839 5836 5833 5831 5829 5826 5823 5818 5814 5809 5804 5798 5793 5787 5780 5774 5767 5760 5754 5747 5741 5735 5729 5724 5719 5715 5710 5706 5703 5700 5697 5696 5695 5695 5696 5697
5850 5850 5848 5846 5844 5842 5841 5839 5836 5833 5831 5828 5824 5823 5817 5812 5807 5801 5795 5789 5783 5775 5768 5760 5753 5745 5738 5730 5723 5716 5710 5705 5700 5696 5692 5689 5685 5682 5679 5677 5675 5674 5674 5675
5849 5848 5846 5845 5843 5841 5838 5836 5833 5831 5828 5824 5820 5819 5811 5805 5799 5793 5787 5780 5772 5764 5756 5748 5739 5731 5724 5716 5708 5701 5695 5689 5684 5679 5674 5670 5666 5663 5660 5658 5656 5654 5654 5654
5849 5848 5846 5844 5843 5840 5836 5833 5831 5828 5825 5820 5816 5814 5805 5799 5793 5786 5778 5771 5763 5755 5746 5737 5729 5720 5712 5704 5696 5689 5682 5675 5669 5663 5657 5652 5647 5643 5640 5638 5636 5634 5634 5634
5848 5847 5846 5844 5841 5838 5835 5831 5828 5825 5821 5816 5812 5807 5801 5794 5787 5779 5771 5763 5755 5746 5737 5728 5718 5709 5700 5692 5684 5677 5669 5661 5653 5646 5639 5633 5627 5622 5619 5616 5614 5613 5613 5614
5847 5845 5843 5841 5839 5836 5832 5829 5825 5821 5817 5812 5807 5801 5795 5788 5780 5772 5764 5756 5747 5737 5727 5717 5707 5698 5689 5681 5673 5664 5655 5646 5637 5629 5621 5613 5606 5601 5596 5594 5592 5591 5591 5593
5844 5843 5841 5839 5836 5833 5829 5826 5822 5818 5813 5808 5803 5797 5790 5782 5773 5764 5755 5746 5737 5727 5717 5707 5697 5687 5679 5670 5661 5652 5641 5631 5621 5611 5602 5593 5585 5579 5574 5571 5569 5568 5569 5571
5843 5841 5838 5836 5833 5830 5827 5823 5818 5815 5809 5803 5797 5792 5784 5777 5767 5756 5747 5738 5727 5717 5707 5697 5687 5678 5668 5659 5649 5638 5627 5615 5604 5593 5583 5573 5565 5558 5552 5548 5546 5546 5547 5549
5841 5839 5836 5833 5831 5826 5825 5819 5815 5810 5805 5799 5793 5786 5778 5771 5762 5750 5739 5729 5719 5708 5698 5688 5678 5668 5658 5648 5637 5625 5613 5600 5588 5577 5565 5554 5545 5537 5531 5527 5525 5525 5526 5529
5839 5836 5833 5830 5826 5823 5819 5814 5809 5805 5801 5794 5787 5780 5772 5764 5757 5747 5735 5724 5712 5701 5689 5679 5669 5659 5649 5638 5626 5613 5600 5587 5574 5561 5549 5537 5526 5518 5512 5508 5505 5505 5507 5511
5836 5834 5830 5826 5822 5819 5816 5811 5805 5801 5796 5789 5782 5774 5766 5757 5749 5740 5728 5716 5704 5693 5682 5672 5662 5652 5641 5629 5616 5603 5590 5577 5563 5549 5535 5523 5512 5503 5497 5492 5489 5489 5491 5495
5833 5829 5826 5823 5819 5816 5812 5807 5802 5798 5792 5784 5777 5769 5761 5751 5740 5730 5719 5707 5697 5686 5675 5666 5656 5645 5633 5621 5608 5595 5581 5567 5553 5539 5525 5512 5501 5492 5485 5480 5477 5476 5478 5481
5828 5825 5822 5819 5815 5814 5808 5803 5799 5794 5787 5780 5773 5765 5756 5747 5736 5725 5714 5702 5691 5681 5670 5660 5650 5639 5627 5614 5601 5588 5574 5560 5546 5532 5518 5506 5495 5485 5477 5472 5468 5467 5468 5471
5824 5821 5818 5815 5813 5808 5804 5799 5795 5789 5783 5776 5769 5760 5751 5741 5731 5720 5709 5697 5687 5676 5665 5655 5645 5634 5622 5609 5595 5582 5569 5555 5541 5528 5515 5502 5492 5482 5474 5468 5463 5462 5462 5465
5820 5817 5814 5811 5808 5804 5800 5795 5790 5784 5778 5771 5763 5755 5746 5736 5725 5715 5704 5693 5683 5672 5660 5651 5641 5630 5618 5605 5591 5578 5565 5551 5538 5525 5513 5502 5491 5482 5474 5467 5463 5460 5459 5462
5815 5813 5810 5807 5804 5800 5796 5790 5785 5779 5773 5766 5758 5749 5740 5731 5721 5711 5700 5689 5679 5668 5657 5647 5637 5626 5614 5602 5589 5576 5563 5550 5538 5525 5514 5503 5493 5484 5476 5470 5465 5463 5462 5463
5811 5809 5806 5803 5799 5795 5791 5785 5780 5774 5768 5761 5753 5745 5736 5727 5718 5707 5696 5686 5675 5664 5654 5644 5634 5623 5612 5600 5587 5575 5563 5550 5538 5527 5516 5505 5496 5487 5480 5474 5470 5466 5465 5465